[[[{"header":{"parameterUnit":"kt","parameterCategory":2,"dx":1,"dy":1,"la1":30.253999710083008,"la2":30.299108505249023,"lo1":-89.0895004272461,"lo2":-89.04439544677734,"nx":28,"ny":28,"refTime":"2022-10-08T21:00:00:Z","depth":0,"parameterNumber":1,"parameterNumberName":"U-component_of_WINDS"},"data":[-5.4494,-5.4676,-5.4663,-5.4863,-5.4885,-5.502,-5.5063,-5.5118,-5.5158,-5.5317,-5.5405,-5.5409,-5.5443,-5.5545,-5.564,-5.564,-5.5683,-5.5757,-5.5744,-5.5424,-5.5379,-5.5336,-5.5293,-5.5765,-5.5766,-5.6079,-5.6082,-5.6084,-5.4261,-5.4284,-5.4386,-5.4476,-5.4563,-5.4483,-5.4547,-5.4626,-5.4748,-5.4798,-5.4885,-5.5023,-5.513,-5.5139,-5.5239,-5.5324,-5.5293,-5.5352,-5.5348,-5.5355,-5.5011,-5.4966,-5.5376,-5.5376,-5.5376,-5.5376,-5.5376,-5.5375,-5.3832,-5.3941,-5.3988,-5.4098,-5.4139,-5.4199,-5.43,-5.4303,-5.4402,-5.4506,-5.4468,-5.4607,-5.4654,-5.4768,-5.4802,-5.491,-5.4841,-5.4902,-5.4919,-5.4936,-5.4958,-5.4512,-5.4925,-5.4924,-5.4923,-5.4922,-5.4921,0,-5.3515,-5.3496,-5.3593,-5.3686,-5.3765,-5.3836,-5.3898,-5.396,-5.3914,-5.3998,-5.4118,-5.4185,-5.4316,-5.4428,-5.4518,-5.4541,-5.4469,-5.4459,-5.4502,-5.4525,-5.4533,-5.4535,-5.3978,-5.4448,-5.4444,-5.4441,-5.4439,-5.4437,-5.3085,-5.3213,-5.3254,-5.3324,-5.3354,-5.3467,-5.3531,-5.3481,-5.3552,-5.362,-5.3719,-5.3829,-5.3915,-5.411,-5.4111,-5.421,-5.4177,-5.4358,-5.4191,-5.4206,-5.4184,-5.4179,-5.4192,-5.4393,-5.4399,-5.4404,-5.4407,0,-5.2845,-5.2821,-5.3015,-5.3042,-5.3052,-5.3189,-5.3213,-5.3319,-5.3309,-5.3454,-5.3485,-5.3471,-5.3589,-5.3561,-5.3691,-5.3673,-5.3899,-5.3862,-5.3883,-5.3875,-5.4038,-5.4025,-5.4563,-5.4632,-5.4138,-5.4143,-5.4147,0,-5.2471,-5.264,-5.2595,-5.2709,-5.2895,-5.284,-5.3026,-5.3036,-5.3076,-5.319,-5.3101,-5.321,-5.3156,-5.3261,-5.3234,-5.3413,-5.3436,-5.3435,-5.3427,-5.3446,-5.3447,-5.3486,-5.3465,-5.3398,-5.3395,-5.3393,-5.3391,0,-5.2101,-5.2274,-5.2457,-5.2493,-5.254,-5.2627,-5.2651,-5.2694,-5.2758,-5.2835,-5.2876,-5.297,-5.3023,-5.3097,-5.3063,-5.2951,-5.328,-5.3119,-5.3279,-5.3281,-5.3357,-5.3354,-5.3833,-5.3387,-5.3387,-5.3386,-5.3385,0,-5.1796,-5.1875,-5.2144,-5.2181,-5.2229,-5.2349,-5.2438,-5.2535,-5.2587,-5.2578,-5.2638,-5.2577,-5.2729,-5.2572,-5.2782,-5.2646,-5.2703,-5.2714,-5.2725,-5.2741,-5.2567,-5.2847,-5.3303,-5.3351,-5.275,-5.2745,-5.274,0,-5.1381,-5.1645,-5.16,-5.1856,-5.1975,-5.1868,-5.2,-5.2049,-5.2048,-5.2148,-5.2145,-5.2261,-5.2137,-5.217,-5.2276,-5.228,-5.2456,-5.2255,-5.2404,-5.241,-5.2398,-5.2815,-5.2893,-5.3205,-5.2672,-5.2679,-5.2684,0,-5.1056,-5.111,-5.116,-5.1199,-5.1254,-5.1352,-5.1504,-5.1606,-5.1675,-5.1738,-5.1866,-5.2025,-5.1939,-5.1994,-5.1954,-5.2067,-5.2335,-5.196,-5.1961,-5.2032,-5.2634,-5.2707,-5.2759,-5.2283,-5.2292,-5.2298,-5.263,0,-5.0608,-5.0736,-5.0866,-5.0954,-5.1025,-5.1183,-5.1153,-5.1231,-5.1185,-5.1181,-5.1366,-5.1399,-5.1504,-5.1553,-5.151,-5.1777,-5.1729,-5.1636,-5.1485,-5.1758,-5.1867,-5.1911,-5.1325,-5.132,-5.1316,-5.1313,0,0,-5.0219,-5.0402,-5.0347,-5.0493,-5.055,-5.0437,-5.0609,-5.0651,-5.074,-5.0782,-5.0696,-5.0927,-5.0958,-5.1187,-5.127,-5.1311,-5.1357,-5.1263,-5.1627,-5.1663,-5.1695,-5.1812,-5.1858,-5.1306,-5.1305,-5.1303,-5.1302,0,-5.005,-5.0081,-5.0251,-5.0292,-5.0351,-5.0337,-5.0378,-5.0416,-5.0421,-5.0602,-5.0508,-5.0615,-5.0801,-5.0847,-5.0895,-5.1233,-5.1158,-5.1266,-5.1459,-5.1589,-5.1629,-5.1665,-5.1788,-5.1832,-5.1293,-5.1293,-5.1294,0,-4.9728,-4.9755,-4.9834,-4.9956,-4.9993,-5.0117,-4.995,-5.0088,-5.0179,-5.0051,-5.0232,-5.0247,-5.0306,-5.0525,-5.0622,-5.0547,-5.0979,-5.0836,-5.086,-5.0872,-5.0996,-5.1044,-5.1088,-5.0519,-5.0517,-5.0514,0,0,-4.9586,-4.9704,-4.9718,-4.9917,-4.9947,-4.9929,-4.9992,-4.9953,-5.0007,-5.003,-5.0048,-5.0104,-5.0211,-5.0284,-5.0383,-5.0627,-5.0637,-5.0742,-5.0779,-5.0809,-5.0837,-5.0969,-5.1017,-5.0505,-5.0504,-5.0504,0,0,-4.9519,-4.9543,-4.9487,-4.9714,-4.9768,-4.9796,-4.992,-4.9852,-4.9938,-4.9917,-4.9859,-4.9871,-5.0075,-5.0094,-4.9967,-5.0329,-5.0179,-5.0209,-5.031,-5.0356,-5.0392,-5.0385,-4.9803,0,0,0,0,0,-4.9331,-4.9539,-4.9488,-4.9522,-4.9676,-4.9824,-4.9844,-4.98,-4.9695,-4.9793,-4.9797,-4.9712,-5.0013,-4.99,-4.9934,-5.0078,-5.038,-5.0402,-5.0423,-5.0611,-5.0659,-5.0699,0,0,0,0,0,0,-4.9343,-4.9385,-4.9482,-4.952,-4.9554,-4.9816,-4.9629,-4.9622,-4.9683,-4.9664,-4.9713,-4.9713,-4.9679,-4.9879,-4.9911,-5.0048,-4.9792,-5.0388,-5.0407,-5.0424,-5.0627,-5.0666,-5.07,0,0,0,0,0,-4.9353,-4.9386,-4.9646,-4.9517,-4.9547,-4.9538,-4.962,-4.9614,-4.966,-4.9667,-4.9664,-4.9622,-4.9684,-4.9708,-4.9898,-5.0035,-4.9769,-4.9781,-5.04,-5.0415,-5.0429,-5.0646,0,0,0,0,0,0,-4.9361,-4.9382,-4.9651,-4.9658,-4.9435,-4.9523,-4.9535,-4.9607,-4.9658,-4.9657,-4.9571,-4.9556,-4.969,-4.9708,-4.9727,-5.0033,-4.9751,-4.9763,-4.9771,-5.0412,-5.0423,-5.0434,0,0,0,0,0,0,-4.9363,-4.9389,-4.9655,-4.9553,-4.9549,-4.9509,-4.952,-4.9674,-4.966,-4.9559,-4.9547,-4.9564,-4.9662,-4.9709,-4.9723,-4.9966,-4.9737,-4.9749,-4.9757,-4.9762,-5.0421,-5.043,0,0,0,0,0,0,-4.9373,-4.9395,-4.9551,-4.9548,-4.9543,-4.9624,-4.9644,-4.9806,-4.9573,-4.9558,-4.955,-4.954,-4.9666,-4.9679,-4.9721,-4.9959,-4.9964,-4.9737,-4.9745,-4.9751,-4.9755,0,0,0,0,0,0,0,-4.9381,-4.9246,-4.9607,-4.9543,-4.9539,-4.9727,-4.9729,-4.9731,-4.957,-4.9562,-4.9553,-4.9545,-4.967,-4.9683,-4.9696,-4.9953,0,0,-4.9736,-4.9742,0,0,0,0,0,0,0,0,-4.9236,-4.9244,-4.9607,-4.9608,-4.961,-4.9728,-4.9729,-4.9731,-4.9569,-4.9562,-4.9555,-4.9548,-4.9673,-4.9684,-4.9694,0,0,0,0,0,0,0,0,0,0,0,0,0,0,0,-4.9607,-4.9608,0,-4.9728,-4.9729,-4.973,-4.9568,-4.9562,-4.9556,-4.9551,-4.9676,-4.9685,-4.9694,0,0,0,0,0,0,0,0,0,0,0,0,0,0,0,0,0,0,0,0,0,0,0,0,0,0,0,0,0,0,0,0,0,0,0,0,0,0,0,0,0,0,0,0,0,0,0,0,0,0,0,0,0,0,0,0,0,0,0,0,0,0,0,0,0,0,0,0,0]}],[{"header":{"parameterUnit":"kt","parameterCategory":2,"dx":1,"dy":1,"la1":30.253999710083008,"la2":30.299108505249023,"lo1":-89.0895004272461,"lo2":-89.04439544677734,"nx":28,"ny":28,"refTime":"2022-10-08T21:00:00:Z","depth":0,"parameterNumber":2,"parameterNumberName":"V-component_of_WINDS"},"data":[-11.2099,-11.2292,-11.2288,-11.2504,-11.2535,-11.268,-11.273,-11.2792,-11.2839,-11.3008,-11.3103,-11.3113,-11.3154,-11.3262,-11.3361,-11.3362,-11.3405,-11.3477,-11.3466,-11.3151,-11.3107,-11.3064,-11.302,-11.3487,-11.3488,-11.3793,-11.3796,-11.3798,-11.1868,-11.1903,-11.2016,-11.2122,-11.2218,-11.2145,-11.2221,-11.2305,-11.2436,-11.2495,-11.2588,-11.2734,-11.2847,-11.2863,-11.2969,-11.3054,-11.3024,-11.3083,-11.3076,-11.3083,-11.2746,-11.2699,-11.3106,-11.3106,-11.3106,-11.3106,-11.3105,-11.3105,-11.1445,-11.1561,-11.1623,-11.1745,-11.1796,-11.1866,-11.1974,-11.1986,-11.2094,-11.2208,-11.2177,-11.2322,-11.2377,-11.25,-11.2538,-11.2648,-11.2579,-11.2641,-11.2656,-11.2672,-11.2691,-11.225,-11.2665,-11.2664,-11.2662,-11.2661,-11.2661,0,-11.1133,-11.1121,-11.123,-11.1337,-11.1425,-11.1507,-11.1579,-11.1645,-11.1612,-11.1702,-11.1831,-11.1903,-11.2043,-11.216,-11.2257,-11.2283,-11.2212,-11.2204,-11.2246,-11.2263,-11.2267,-11.2267,-11.1717,-11.2191,-11.2187,-11.2184,-11.2182,-11.2181,-11.0705,-11.0841,-11.0902,-11.0979,-11.1017,-11.1141,-11.1213,-11.1174,-11.1251,-11.1331,-11.1433,-11.1551,-11.1643,-11.1846,-11.1853,-11.1956,-11.1922,-11.2104,-11.1937,-11.1949,-11.1924,-11.1916,-11.1929,-11.2137,-11.2143,-11.2147,-11.2151,0,-11.0464,-11.0454,-11.0663,-11.0709,-11.0724,-11.0867,-11.0904,-11.1016,-11.1014,-11.1167,-11.12,-11.1195,-11.132,-11.1297,-11.1434,-11.1418,-11.1647,-11.1611,-11.1627,-11.1619,-11.1779,-11.1764,-11.2304,-11.2372,-11.1888,-11.1893,-11.1896,0,-11.0094,-11.0274,-11.0248,-11.037,-11.0567,-11.0524,-11.0719,-11.0736,-11.0785,-11.0905,-11.0822,-11.0936,-11.0889,-11.0998,-11.0975,-11.1158,-11.1183,-11.1181,-11.1173,-11.1189,-11.1189,-11.1227,-11.1204,-11.1149,-11.1146,-11.1144,-11.1142,0,-10.9718,-10.9915,-11.0112,-11.0155,-11.0221,-11.0313,-11.0344,-11.0397,-11.0467,-11.0553,-11.0597,-11.0699,-11.0755,-11.0833,-11.0803,-11.069,-11.1026,-11.0865,-11.1024,-11.1025,-11.1099,-11.1095,-11.1579,-11.1138,-11.1137,-11.1137,-11.1136,0,-10.9417,-10.9511,-10.9799,-10.985,-10.9903,-11.0032,-11.0132,-11.0237,-11.0299,-11.0294,-11.036,-11.0302,-11.0461,-11.0302,-11.052,-11.0382,-11.0441,-11.0453,-11.0464,-11.0476,-11.0299,-11.0575,-11.104,-11.1087,-11.0488,-11.0482,-11.0478,0,-10.8989,-10.9277,-10.9243,-10.9517,-10.9646,-10.9546,-10.9688,-10.9745,-10.975,-10.9857,-10.986,-10.9982,-10.986,-10.9894,-11.0005,-11.0012,-11.0191,-10.9987,-11.0137,-11.0143,-11.0125,-11.0552,-11.0627,-11.0941,-11.0408,-11.0416,-11.0421,0,-10.8656,-10.8737,-10.8788,-10.8835,-10.8907,-10.9015,-10.9178,-10.9291,-10.9365,-10.9438,-10.9572,-10.9743,-10.9657,-10.9715,-10.9678,-10.9795,-11.0068,-10.9686,-10.9686,-10.9755,-11.0372,-11.0442,-11.0495,-11.0017,-11.0025,-11.0032,-11.0366,0,-10.8203,-10.8346,-10.8484,-10.8591,-10.8671,-10.8841,-10.882,-10.8906,-10.8863,-10.8864,-10.906,-10.91,-10.9212,-10.9266,-10.9224,-10.9499,-10.9449,-10.9356,-10.9199,-10.948,-10.9589,-10.9634,-10.9038,-10.9033,-10.9029,-10.9026,0,0,-10.7794,-10.7999,-10.7956,-10.8115,-10.8179,-10.8073,-10.8256,-10.8305,-10.8409,-10.8454,-10.8367,-10.8615,-10.8651,-10.8891,-10.8976,-10.9022,-10.9068,-10.8971,-10.9346,-10.9382,-10.9415,-10.9533,-10.958,-10.9019,-10.9017,-10.9016,-10.9015,0,-10.7625,-10.7671,-10.7855,-10.7905,-10.7978,-10.7971,-10.8015,-10.8067,-10.8076,-10.8269,-10.8175,-10.829,-10.8489,-10.854,-10.8591,-10.8942,-10.8863,-10.8978,-10.9174,-10.9307,-10.9348,-10.9384,-10.9508,-10.9554,-10.9005,-10.9005,-10.9006,0,-10.7292,-10.7334,-10.742,-10.7565,-10.7611,-10.7746,-10.7578,-10.7728,-10.7827,-10.7699,-10.7892,-10.7911,-10.7976,-10.8206,-10.8308,-10.8231,-10.8679,-10.8533,-10.8558,-10.8568,-10.8695,-10.8745,-10.8789,-10.8207,-10.8204,-10.8202,0,0,-10.7148,-10.7281,-10.7312,-10.7527,-10.7563,-10.7554,-10.7624,-10.7588,-10.7652,-10.7677,-10.77,-10.7763,-10.7877,-10.7954,-10.806,-10.8317,-10.8325,-10.8436,-10.8474,-10.8505,-10.8532,-10.8667,-10.8716,-10.8192,-10.8191,-10.8191,0,0,-10.7078,-10.7123,-10.707,-10.7317,-10.7383,-10.7424,-10.7555,-10.7489,-10.7584,-10.7562,-10.7506,-10.752,-10.7734,-10.7756,-10.7624,-10.8003,-10.7849,-10.788,-10.7982,-10.8029,-10.8066,-10.8056,-10.7454,0,0,0,0,0,-10.6895,-10.7118,-10.7069,-10.7108,-10.7288,-10.7452,-10.7474,-10.7435,-10.7327,-10.7431,-10.744,-10.7351,-10.7673,-10.7555,-10.7592,-10.774,-10.8062,-10.8085,-10.8106,-10.8298,-10.8347,-10.8389,0,0,0,0,0,0,-10.691,-10.6957,-10.7063,-10.7115,-10.7155,-10.7444,-10.7251,-10.7247,-10.7315,-10.7296,-10.7353,-10.7353,-10.7321,-10.7533,-10.7567,-10.7708,-10.7443,-10.8071,-10.809,-10.8108,-10.8315,-10.8355,-10.839,0,0,0,0,0,-10.6921,-10.6959,-10.726,-10.7112,-10.7147,-10.7148,-10.7242,-10.7237,-10.7289,-10.7303,-10.73,-10.7254,-10.7326,-10.7352,-10.7553,-10.7694,-10.7419,-10.7432,-10.8083,-10.8099,-10.8113,-10.8334,0,0,0,0,0,0,-10.693,-10.6954,-10.7266,-10.7275,-10.7025,-10.7131,-10.7147,-10.7229,-10.729,-10.7291,-10.7199,-10.7184,-10.7332,-10.7351,-10.7371,-10.7691,-10.7399,-10.7413,-10.7421,-10.8095,-10.8107,-10.8118,0,0,0,0,0,0,-10.6933,-10.6963,-10.727,-10.7163,-10.716,-10.7116,-10.713,-10.7294,-10.7292,-10.7183,-10.7172,-10.7192,-10.73,-10.7352,-10.7367,-10.7626,-10.7384,-10.7397,-10.7406,-10.7411,-10.8105,-10.8114,0,0,0,0,0,0,-10.6945,-10.697,-10.7161,-10.7158,-10.7154,-10.7252,-10.726,-10.7446,-10.7204,-10.7182,-10.7181,-10.717,-10.7304,-10.7318,-10.7365,-10.7618,-10.7624,-10.7385,-10.7393,-10.7399,-10.7403,0,0,0,0,0,0,0,-10.6954,-10.6796,-10.7213,-10.7154,-10.715,-10.7358,-10.736,-10.7363,-10.7202,-10.7193,-10.7184,-10.7175,-10.7313,-10.7327,-10.7341,-10.7611,0,0,-10.7384,-10.739,0,0,0,0,0,0,0,0,-10.6784,-10.6793,-10.7213,-10.7215,-10.7217,-10.7358,-10.736,-10.7362,-10.72,-10.7193,-10.7185,-10.7178,-10.7317,-10.7328,-10.7339,0,0,0,0,0,0,0,0,0,0,0,0,0,0,0,-10.7214,-10.7215,0,-10.7359,-10.736,-10.7362,-10.7199,-10.7193,-10.7187,-10.7181,-10.732,-10.7329,-10.7338,0,0,0,0,0,0,0,0,0,0,0,0,0,0,0,0,0,0,0,0,0,0,0,0,0,0,0,0,0,0,0,0,0,0,0,0,0,0,0,0,0,0,0,0,0,0,0,0,0,0,0,0,0,0,0,0,0,0,0,0,0,0,0,0,0,0,0,0,0]}]]]